Tracking 25195 objects as of 20-Jan-2022
HD Live streaming from Space Station
objects crossing your sky now

TIROS 6

Track TIROS 6 now!
10-day predictions
TIROS 6 is classified as:


NORAD ID: 397
Int'l Code: 1962-047A
Perigee: 598.4 km
Apogee: 619.9 km
Inclination: 58.3 °
Period: 96.7 minutes
Semi major axis: 6980 km
RCS: 0.807 m2 (medium)
Launch date: September 18, 1962
Source: United States (US)
Launch site: AIR FORCE EASTERN TEST RANGE (AFETR)
aabbcc
Your satellite tracking list
Your tracking list is empty




NASA's NSSDC Master Catalog

Two Line Element Set (TLE):
1 00397U 62047A   22019.53997391  .00000438  00000-0  69719-4 0  9999
2 00397  58.3068 320.3738 0015417  94.9162 265.3643 14.88695300172111
Source of the keplerian elements: AFSPC